Regional Weather Roundup
Issued by NWS

Home | Current Version | Previous Version | Text Only | Print | Product List | Glossary On
Versions: 1 2 3 4 5 6 7 8 9 10 11 12 13 14 15 16 17 18 19 20 21 22 23 24 25 26 27 28 29 30 31 32 33 34 35 36 37 38 39 40 41 42 43 44 45 46 47 48 49 50
000
ASUS45 KREV 181610
RWRNV
NEVADA REGIONAL WEATHER ROUNDUP
NATIONAL WEATHER SERVICE RENO NV
800 AM PST SAT NOV 18 2017

NOTE: "FAIR" INDICATES FEW OR NO CLOUDS BELOW 12,000 FEET WITH NO
SIGNIFICANT WEATHER AND/OR OBSTRUCTIONS TO VISIBILITY.

NVZ001-003-004-181700-
WESTERN NEVADA

CITY           SKY/WX    TMP DP  RH WIND       PRES   REMARKS
RENO           MOSUNNY   29  23  78 CALM      30.34R
CARSON CITY    FAIR      28  23  80 CALM      30.35R
MINDEN         FAIR      25  23  93 CALM      30.34R
SLIDE MTN        N/A     32  19  59 SW14        N/A
PYRAMID LAKE     N/A     37 N/A N/A SE12        N/A
FALLON         MOSUNNY   29  21  72 SE3       30.37R
LOVELOCK       SUNNY     21  17  84 CALM      30.37R
HAWTHORNE      SUNNY     30  23  74 CALM      30.36R
$$

NVZ002-CAZ072-073-181700-
NORTHERN AND CENTRAL SIERRA

CITY           SKY/WX    TMP DP  RH WIND       PRES   REMARKS
S. LAKE TAHOE  SUNNY     21  18  88 S3        30.30R
SQUAW VLY 8000   N/A     34  10  37 SW5         N/A
SUSANVILLE     SUNNY    N/A N/A N/A W3        30.33R
BLUE CANYON    SUNNY     44  13  28 CALM      30.23R
MAMMOTH LAKES  FAIR      23  18  81 CALM      30.34R
$$

NVZ030-031-036-181700-
NORTHERN NEVADA

CITY           SKY/WX    TMP DP  RH WIND       PRES   REMARKS
ELKO           SUNNY     22  17  81 E5        30.41R
WINNEMUCCA     MOSUNNY   28  20  71 NE10      30.37R
WENDOVER       SUNNY     27  20  75 CALM      30.47R
$$

NVZ035-037-181700-
CENTRAL NEVADA

CITY           SKY/WX    TMP DP  RH WIND       PRES   REMARKS
ELY            MOSUNNY   13   8  81 S12       30.41R WCI  -1
EUREKA           N/A     19  14  81 CALM      30.38R
$$

NVZ013-014-181700-
SOUTH CENTRAL NEVADA

CITY           SKY/WX    TMP DP  RH WIND       PRES   REMARKS
TONOPAH        MOSUNNY   26   8  46 NE13      30.37R
$$

NVZ017-020-022-181700-
SOUTHERN NEVADA

CITY           SKY/WX    TMP DP  RH WIND       PRES   REMARKS
LAS VEGAS      SUNNY     50  17  27 SE7       30.37R
N. LAS VEGAS   SUNNY     49  14  24 N8        30.37R
NELLIS AFB     SUNNY     50  17  26 SW5       30.38R
HENDERSON      SUNNY     47  16  29 NE3       30.39R
MERCURY        SUNNY     41  13  31 NE18      30.36R
$$



USA.gov is the U.S. government's official web portal to all federal, state and local government web resources and services.